TimeEDT,TemperatureF,Dew PointF,Humidity,Sea Level PressureIn,VisibilityMPH,Wind Direction,Wind SpeedMPH,Gust SpeedMPH,PrecipitationIn,Events,Conditions,WindDirDegrees,DateUTC
12:53 AM,45.0,39.9,82,30.17,10.0,Calm,Calm,-,N/A,,Clear,0,2013-05-27 04:53:00
1:53 AM,52.0,39.9,63,30.18,10.0,Calm,Calm,-,N/A,,Clear,0,2013-05-27 05:53:00
2:53 AM,48.9,39.0,69,30.18,10.0,SW,3.5,-,N/A,,Clear,220,2013-05-27 06:53:00
3:53 AM,50.0,37.9,63,30.18,10.0,Calm,Calm,-,N/A,,Clear,0,2013-05-27 07:53:00
4:53 AM,48.9,36.0,61,30.18,10.0,Calm,Calm,-,N/A,,Clear,0,2013-05-27 08:53:00
5:53 AM,48.9,37.9,66,30.19,10.0,WSW,3.5,-,N/A,,Clear,250,2013-05-27 09:53:00
6:53 AM,52.0,39.9,63,30.20,10.0,Calm,Calm,-,N/A,,Clear,0,2013-05-27 10:53:00
7:53 AM,55.9,39.0,53,30.20,10.0,Calm,Calm,-,N/A,,Clear,0,2013-05-27 11:53:00
8:53 AM,60.1,39.9,47,30.21,10.0,SSW,5.8,-,N/A,,Clear,200,2013-05-27 12:53:00
9:53 AM,63.0,44.1,50,30.20,10.0,SSW,4.6,-,N/A,,Clear,210,2013-05-27 13:53:00
10:53 AM,62.1,48.0,60,30.20,10.0,South,11.5,17.3,N/A,,Clear,190,2013-05-27 14:53:00
11:53 AM,70.0,39.0,32,30.18,10.0,Variable,4.6,16.1,N/A,,Clear,0,2013-05-27 15:53:00
12:53 PM,66.0,45.0,47,30.17,10.0,SSW,5.8,-,N/A,,Clear,210,2013-05-27 16:53:00
1:53 PM,66.9,42.1,40,30.15,10.0,SW,11.5,19.6,N/A,,Clear,220,2013-05-27 17:53:00
2:53 PM,68.0,43.0,40,30.13,10.0,SW,9.2,16.1,N/A,,Clear,220,2013-05-27 18:53:00
3:53 PM,69.1,41.0,36,30.12,10.0,SSW,12.7,18.4,N/A,,Clear,210,2013-05-27 19:53:00
4:53 PM,69.1,41.0,36,30.11,10.0,SSW,8.1,19.6,N/A,,Partly Cloudy,210,2013-05-27 20:53:00
5:53 PM,68.0,44.1,42,30.12,10.0,SSW,9.2,17.3,N/A,,Clear,210,2013-05-27 21:53:00
6:53 PM,64.9,45.0,48,30.12,10.0,Variable,5.8,-,N/A,,Partly Cloudy,0,2013-05-27 22:53:00
7:53 PM,62.1,46.9,58,30.14,10.0,Calm,Calm,-,N/A,,Scattered Clouds,0,2013-05-27 23:53:00
8:53 PM,57.9,45.0,62,30.14,10.0,Calm,Calm,-,N/A,,Scattered Clouds,0,2013-05-28 00:53:00
9:53 PM,55.0,45.0,69,30.15,10.0,Calm,Calm,-,N/A,,Scattered Clouds,0,2013-05-28 01:53:00
10:53 PM,54.0,46.0,75,30.17,10.0,North,4.6,-,N/A,,Clear,350,2013-05-28 02:53:00
11:53 PM,53.1,46.0,77,30.17,10.0,Calm,Calm,-,N/A,,Clear,0,2013-05-28 03:53:00